Regional Weather Roundup
Issued by NWS

Home | Current Version | Previous Version | Graphics & Text | Print | Product List | Glossary On
Versions: 1 2 3 4 5 6 7 8 9 10 11 12 13 14 15 16 17 18 19 20 21 22 23 24 25 26 27
000
ASUS45 KBOI 231410
RWRID
WEATHER ROUNDUP FOR IDAHO
NATIONAL WEATHER SERVICE BOISE ID
800 AM MDT WED APR 23 2014

NOTE: "FAIR" INDICATES FEW OR NO CLOUDS BELOW 12000 FEET
WITH NO SIGNIFICANT WEATHER AND/OR OBSTRUCTIONS TO VISIBILITY

IDZ012-014-231500-
SOUTHWEST IDAHO


CITY           SKY/WX    TMP DP  RH WIND       PRES   REMARKS
BOISE          SUNNY     36  31  82 E5        30.01R WCI  32
CALDWELL       PTSUNNY   34  23  64 E3        30.03R
MOUNTAIN HOME  SUNNY     32  32  99 SW2       30.01R
$$

IDZ016-017-231500-
SOUTHCENTRAL IDAHO


CITY           SKY/WX    TMP DP  RH WIND       PRES   REMARKS
BURLEY         SUNNY     36  25  64 W21       29.98R WCI  25
JEROME         SUNNY     33  26  75 SW13      30.00R WCI  24
TWIN FALLS     SUNNY     35  25  66 S13       30.00R WCI  26
$$

IDZ019>023-231500-
SOUTHEAST IDAHO


CITY           SKY/WX    TMP DP  RH WIND       PRES   REMARKS
IDAHO FALLS    CLOUDY    33  29  85 SW15      29.90R WCI  23
POCATELLO      PTSUNNY   36  28  73 SW22      29.96R WCI  25
REXBURG        CLOUDY    31  30  96 S10       29.88R WCI  22
$$

IDZ006-010-011-018-031-032-231500-
CENTRAL IDAHO MOUNTAINS


CITY           SKY/WX    TMP DP  RH WIND       PRES   REMARKS
MCCALL         CLOUDY    24  21  88 CALM      29.91R
HAILEY         MOSUNNY   30  12  47 NW6       29.92R WCI  24
STANLEY          N/A     20  16  84 S5        29.92R WCI  13
SALMON         PTSUNNY   36  23  60 SW12      29.90R WCI  27
CHALLIS        MOSUNNY   31  18  58 SW7       29.91R WCI  24
$$

IDZ002-004-006-007-026-231500-
NORTHERN IDAHO


CITY           SKY/WX    TMP DP  RH WIND       PRES   REMARKS
LEWISTON       CLOUDY    42  31  64 NE5       29.90R
LOWELL         NOT AVBL
COEUR D`ALENE  CLOUDY    34  30  86 S7        29.86S WCI  28
MULLAN PASS    LGT SNOW  24  24 100 VRB3      29.76S FOG
$$



USA.gov is the U.S. government's official web portal to all federal, state and local government web resources and services.